Weather History for Meridian NAS, MS

Change the Weather History Date:

Monday, October 8, 2012

  Actual Average Record
Temperature  
Mean Temperature 55 °F -  
Max Temperature 64 °F 76 °F 91 °F (2007)
Min Temperature 46 °F 55 °F 46 °F (2012)
Degree Days  
Heating Degree Days 10    
Growing Degree Days 5 (Base 50)    
Moisture  
Dew Point 46 °F    
Average Humidity 75    
Maximum Humidity 93    
Minimum Humidity 50    
Precipitation  
Precipitation 0.00 in - - ()
Sea Level Pressure  
Sea Level Pressure 30.18 in    
Wind  
Wind Speed 4 mph (North)    
Max Wind Speed 9 mph    
Max Gust Speed 17 mph    
Visibility 10 miles    
Events      
Averages and records for this station are not official NWS values.
T = Trace of Precipitation, MM = Missing Value Source: NWS Daily Summary

Daily Weather History Graph

Daily Weather History Graph

Search for Another Location

Airport:

Trip Planner

Search our weather history database for the weather conditions in past years. The results will help you decide how hot, cold, wet, or windy it might be!

Date:

Astronomy

Oct. 08, 2012 Rise Set
Actual Time 6:53 AM CDT 6:29 PM CDT
Civil Twilight 6:28 AM CDT 6:53 PM CDT
Nautical Twilight 6:00 AM CDT 7:22 PM CDT
Astronomical Twilight 5:31 AM CDT 7:50 PM CDT
Moon No Moon Rise 1:58 PM CDT (10/8)
Length of Visible Light 12h 25m
Length of Day
11h 35m
Last Quarter, 46% of the Moon is Illuminated
Oct 8
Last Quarter
Oct 15
New
Oct 21
First Quarter
Oct 29
Full
Nov 6
Last Quarter

Hourly Weather History & Observations

Time (CDT) Temp. Dew Point Humidity Pressure Visibility Wind Dir Wind Speed Gust Speed Precip Events Conditions
12:56 AM 46.9 °F 45.0 °F 93% 30.15 in 10.0 mi Calm Calm - N/A   Partly Cloudy
1:56 AM 48.0 °F 45.0 °F 89% 30.14 in 10.0 mi NW 5.8 mph - N/A   Clear
2:56 AM 48.0 °F 45.0 °F 89% 30.14 in 10.0 mi NW 3.5 mph - N/A   Clear
3:56 AM 48.9 °F 45.0 °F 86% 30.10 in 10.0 mi Calm Calm - N/A   Clear
4:56 AM 48.9 °F 46.0 °F 90% 30.17 in 10.0 mi NNW 6.9 mph - N/A   Mostly Cloudy
5:56 AM 50.0 °F 45.0 °F 83% 30.18 in 10.0 mi North 8.1 mph - N/A   Mostly Cloudy
6:56 AM 50.0 °F 45.0 °F 83% 30.21 in 10.0 mi North 6.9 mph - N/A   Mostly Cloudy
7:56 AM 51.1 °F 46.0 °F 83% 30.22 in 10.0 mi North 5.8 mph - N/A   Overcast
8:56 AM 52.0 °F 45.0 °F 77% 30.23 in 10.0 mi North 5.8 mph - N/A   Overcast
9:56 AM 53.1 °F 45.0 °F 74% 30.26 in 10.0 mi North 9.2 mph - N/A   Overcast
10:56 AM 57.0 °F 44.1 °F 62% 30.24 in 10.0 mi NNE 8.1 mph 17.3 mph N/A   Partly Cloudy
11:56 AM 61.0 °F 45.0 °F 56% 30.22 in 10.0 mi NNE 9.2 mph - N/A   Clear
12:56 PM 63.0 °F 45.0 °F 52% 30.21 in 10.0 mi North 8.1 mph - N/A   Scattered Clouds
1:56 PM 63.0 °F 45.0 °F 52% 30.18 in 10.0 mi NNE 5.8 mph - N/A   Mostly Cloudy
2:56 PM 62.1 °F 46.0 °F 56% 30.16 in 10.0 mi North 8.1 mph - N/A   Mostly Cloudy
3:56 PM 64.0 °F 45.0 °F 50% 30.16 in 10.0 mi NNW 8.1 mph - N/A   Overcast
4:56 PM 61.0 °F 46.0 °F 58% 30.16 in 10.0 mi North 6.9 mph - N/A   Mostly Cloudy
5:56 PM 59.0 °F 46.9 °F 64% 30.16 in 10.0 mi North 4.6 mph - N/A   Overcast
6:56 PM 55.9 °F 48.0 °F 75% 30.16 in 10.0 mi Calm Calm - N/A   Mostly Cloudy
7:56 PM 55.0 °F 48.0 °F 77% 30.17 in 10.0 mi NNW 3.5 mph - N/A   Mostly Cloudy
8:56 PM 54.0 °F 48.9 °F 83% 30.19 in 10.0 mi North 3.5 mph - N/A   Mostly Cloudy
9:56 PM 52.0 °F 48.0 °F 86% 30.20 in 10.0 mi Calm Calm - N/A   Clear
10:56 PM 48.9 °F 46.9 °F 93% 30.19 in 10.0 mi Calm Calm - N/A   Clear
11:56 PM 46.9 °F 45.0 °F 93% 30.17 in 10.0 mi Calm Calm - N/A   Clear